MDT,Max TemperatureF,Mean TemperatureF,Min TemperatureF,Max Dew PointF,MeanDew PointF,Min DewpointF,Max Humidity, Mean Humidity, Min Humidity, Max Sea Level PressureIn, Mean Sea Level PressureIn, Min Sea Level PressureIn, Max VisibilityMiles, Mean VisibilityMiles, Min VisibilityMiles, Max Wind SpeedMPH, Mean Wind SpeedMPH, Max Gust SpeedMPH,PrecipitationIn, CloudCover, Events, WindDirDegrees
2013-6-1,64,48,32,32,27,22,81,47,21,30.34,30.27,30.22,10,10,10,8,1,9,0.00,2,,209
2013-6-2,77,56,34,36,25,13,91,39,9,30.24,30.09,29.96,10,10,10,14,1,22,0.00,0,,207
2013-6-3,77,58,38,31,23,2,66,30,9,30.11,29.98,29.92,10,10,10,29,4,36,0.00,1,,244
2013-6-4,75,54,34,32,21,9,72,32,10,30.15,30.10,30.03,10,10,10,17,3,34,0.00,1,,263
2013-6-5,69,52,36,35,28,14,83,42,12,30.22,30.18,30.15,10,10,10,14,3,20,0.00,0,,230
2013-6-6,75,54,34,34,29,24,77,40,15,30.22,30.18,30.14,10,10,10,16,2,25,0.00,1,,211
2013-6-7,76,60,44,38,32,23,73,40,14,30.17,30.10,30.02,10,10,10,14,2,24,0.00,2,,231
2013-6-8,75,60,44,41,34,24,76,42,15,30.13,30.05,30.00,10,10,10,20,3,28,0.00,1,,259
2013-6-9,82,61,40,38,31,19,74,37,10,30.23,30.17,30.10,10,10,10,10,2,18,0.00,0,,196
2013-6-10,88,66,44,41,30,16,74,33,7,30.15,30.09,30.02,10,10,10,23,2,45,0.00,0,,178
2013-6-11,81,62,43,40,23,3,69,28,5,30.23,30.10,30.04,10,10,10,26,6,37,0.00,0,,237
2013-6-12,85,62,40,33,25,12,65,29,6,30.28,30.22,30.16,10,10,10,15,2,24,0.00,0,,260
2013-6-13,82,66,51,41,30,15,60,29,9,30.21,30.14,30.04,10,10,10,16,2,32,0.00,0,,157
2013-6-14,79,62,46,34,25,11,56,28,8,30.21,30.13,30.05,10,10,10,14,4,26,0.00,0,,263
2013-6-15,80,59,38,31,22,1,73,32,5,30.21,30.16,30.11,10,10,10,18,4,31,0.00,0,,213
2013-6-16,75,59,43,42,32,18,63,38,12,30.29,30.24,30.18,10,10,10,25,3,31,0.00,1,,124
2013-6-17,80,63,46,40,30,11,71,37,8,30.26,30.21,30.15,10,10,10,12,3,17,0.00,1,,136
2013-6-18,84,63,42,37,26,7,66,33,6,30.18,30.10,29.98,10,10,10,17,1,26,0.00,0,,122
2013-6-19,84,62,40,32,16,-12,65,26,4,30.01,29.94,29.87,10,10,7,17,3,29,0.00,0,,204
2013-6-20,81,60,39,28,19,9,56,25,6,30.09,30.04,29.97,10,10,10,9,3,16,0.00,0,,171
2013-6-21,80,59,38,30,22,5,67,35,6,30.10,30.05,29.99,10,10,10,16,2,20,0.00,0,,358
2013-6-22,80,59,38,30,19,6,65,27,6,30.12,30.03,29.97,10,10,10,20,5,32,0.00,0,,245
2013-6-23,80,58,37,29,19,-1,58,26,5,30.15,30.06,29.96,10,10,10,13,2,20,0.00,0,,259
2013-6-24,80,60,39,38,22,0,73,28,4,30.03,29.98,29.94,10,10,10,20,3,26,0.00,1,,227
2013-6-25,78,66,54,38,31,23,44,28,14,30.21,30.12,30.01,10,10,10,14,4,24,0.00,4,,216
2013-6-26,88,66,44,39,31,17,72,34,7,30.32,30.26,30.21,10,10,10,14,2,29,0.00,1,,229
2013-6-27,90,68,46,39,32,19,68,31,8,30.45,30.40,30.33,10,10,10,10,3,16,0.00,0,,194
2013-6-28,93,70,47,40,32,16,64,30,6,30.44,30.37,30.28,10,10,10,12,2,20,0.00,0,,274
2013-6-29,87,70,54,47,39,26,66,35,11,30.36,30.29,30.20,10,10,10,15,3,22,0.00,1,,96
2013-6-30,87,68,49,46,38,17,77,38,8,30.34,30.28,30.20,10,10,10,24,5,38,0.00,0,,322